{"data":{"norad_id":63671,"epoch":"2026-05-25T03:14:11.522112Z","epoch_age_seconds":53574,"freshness":"FRESH","line1":"1 63671U 25085H   26145.13485558  .00144428  00000+0  11068-2 0  9990","line2":"2 63671  43.0009 177.7227 0001141 238.9106 121.1650 15.70899918 62269","mean_motion":15.70899918,"eccentricity":0.0001141,"inclination_deg":43.0009,"raan_deg":177.7227,"arg_perigee_deg":238.9106,"mean_anomaly_deg":121.165,"bstar":0.0011068,"rev_number":6226,"period_min":91.667201933102,"perigee_km":355.55540817577,"apogee_km":357.09221213265,"semimajor_km":6734.4608101542,"source":"CELESTRAK","updated_at":"2026-05-25T13:38:20.091544Z"}}